period_start,C,m1,H,J0,J1,J2,J3,J4,J5,JA,JB,JC,JD,JJ,JK,JN,#
2015-03-24 00:03:16,0.05,0.10,0.00,22.90,26.91,29.29,4.74,27.03,1004.67,2035.02,3418.91,3295.91,3573.75,350.34,344.03,1.41,0000 0000 0000 0000 000000
2015-03-24 00:08:17,0.07,0.11,0.00,22.63,26.90,29.33,4.79,27.12,1004.71,2035.03,3418.04,3295.12,3573.02,350.35,344.21,1.44,0000 0000 0000 0000 000000
2015-03-24 00:13:18,0.06,0.11,0.00,22.52,26.89,29.27,4.77,27.10,1004.52,2035.03,3417.18,3294.71,3572.33,350.24,344.37,1.46,0000 0000 0000 0000 000000
2015-03-24 00:18:20,0.05,0.11,0.00,22.52,26.87,29.32,4.67,26.96,1004.43,2035.06,3416.29,3294.02,3571.87,349.67,343.85,1.49,0000 0000 0000 0000 000000
2015-03-24 00:23:21,0.08,0.11,0.00,22.48,26.87,29.38,4.76,26.98,1004.41,2035.05,3415.34,3293.36,3571.05,350.33,344.62,1.52,0000 0000 0000 0000 000000
2015-03-24 00:28:23,0.06,0.11,0.00,22.49,26.88,29.44,4.90,27.13,1004.41,2035.08,3414.50,3292.88,3570.32,350.28,344.30,1.55,0000 0000 0000 0000 000000
2015-03-24 00:33:24,0.07,0.12,0.00,23.27,26.90,29.71,4.79,27.12,1004.41,2035.04,3413.40,3292.06,3569.43,350.54,343.75,1.58,0000 0000 0000 0000 000000
2015-03-24 00:38:25,0.08,0.12,0.00,23.71,26.91,29.84,4.78,27.04,1004.41,2035.02,3412.46,3291.37,3568.72,350.52,343.20,1.61,0000 0000 0000 0000 000000
2015-03-24 00:43:26,0.07,0.12,0.00,23.25,26.92,29.89,4.64,26.93,1004.41,2035.04,3411.30,3290.65,3567.95,349.64,342.85,1.64,0000 0000 0000 0000 000000
2015-03-24 00:48:27,0.07,0.12,0.00,23.04,26.92,29.78,4.76,27.02,1004.41,2035.04,3410.18,3289.93,3567.11,350.14,343.87,1.67,0000 0000 0000 0000 000000
2015-03-24 00:53:29,0.09,0.13,0.00,23.06,26.92,29.40,4.73,27.11,1004.41,2035.04,3409.12,3289.10,3566.29,349.89,343.35,1.70,0000 0000 0000 0000 000000
2015-03-24 00:58:30,0.05,0.13,0.00,23.22,26.92,29.19,4.66,27.05,1004.41,2035.10,3408.26,3288.81,3565.82,349.27,342.62,1.73,0000 0000 0000 0000 000000
2015-03-24 01:03:31,0.08,0.13,0.00,22.77,26.90,29.26,4.75,27.13,1004.40,2035.22,3407.53,3288.05,3565.02,349.60,343.39,1.76,0000 0000 0000 0000 000000
2015-03-24 01:08:33,0.08,0.13,0.00,22.56,26.90,29.28,4.69,27.10,1004.40,2035.14,3406.46,3287.36,3564.15,349.67,343.87,1.79,0000 0000 0000 0000 000000
2015-03-24 01:13:34,0.05,0.13,0.00,22.59,26.87,29.38,4.73,27.14,1004.34,2035.15,3405.48,3286.73,3563.44,349.76,343.74,1.82,0000 0000 0000 0000 000000
2015-03-24 01:18:35,0.07,0.14,0.00,22.51,26.87,29.35,4.70,27.02,1004.32,2035.09,3404.60,3286.03,3562.70,349.93,343.77,1.85,0000 0000 0000 0000 000000
2015-03-24 01:23:37,0.07,0.14,0.00,22.56,26.87,29.48,4.73,27.01,1004.27,2035.08,3403.51,3285.30,3561.97,350.03,344.32,1.88,0000 0000 0000 0000 000000
2015-03-24 01:28:38,0.06,0.14,0.00,22.60,26.87,29.54,4.86,27.14,1004.05,2035.09,3402.60,3284.72,3561.11,350.69,344.65,1.90,0000 0000 0000 0000 000000
2015-03-24 01:33:40,0.06,0.14,0.00,23.39,26.89,29.74,4.74,27.00,1004.00,2035.06,3401.69,3283.97,3560.32,350.21,343.14,1.93,0000 0000 0000 0000 000000
2015-03-24 01:38:41,0.09,0.15,0.00,23.80,26.91,29.83,4.75,27.11,1003.98,2035.03,3400.56,3283.11,3559.37,350.17,342.69,1.96,0000 0000 0000 0000 000000
2015-03-24 01:43:41,0.09,0.15,0.00,23.33,26.92,29.92,4.77,27.15,1003.95,2035.05,3399.56,3282.42,3558.62,350.20,343.03,1.99,0000 0000 0000 0000 000000
2015-03-24 01:48:43,0.06,0.15,0.00,23.13,26.93,29.84,4.70,27.02,1003.94,2035.03,3398.40,3281.74,3557.77,349.89,343.20,2.02,0000 0000 0000 0000 000000
2015-03-24 01:53:44,0.05,0.15,0.00,23.13,26.93,29.51,4.61,27.07,1003.93,2035.01,3397.51,3281.05,3557.04,349.42,342.70,2.05,0000 0000 0000 0000 000000
2015-03-24 01:58:46,0.07,0.15,0.00,23.38,26.92,29.26,4.60,27.02,1003.92,2035.03,3396.76,3280.64,3556.46,349.38,342.40,2.08,0000 0000 0000 0000 000000
2015-03-24 02:03:47,0.04,0.16,0.00,22.93,26.92,29.30,4.73,27.18,1003.92,2035.05,3395.81,3280.00,3555.86,349.66,343.02,2.11,0000 0000 0000 0000 000000
2015-03-24 02:08:48,0.08,0.16,0.00,22.68,26.91,29.34,4.72,27.27,1003.92,2035.06,3394.88,3279.18,3555.05,349.49,343.56,2.14,0000 0000 0000 0000 000000
2015-03-24 02:13:49,0.06,0.16,0.00,22.67,26.90,29.38,4.79,27.21,1003.92,2035.09,3393.93,3278.67,3554.30,350.03,343.65,2.17,0000 0000 0000 0000 000000
2015-03-24 02:18:51,0.06,0.16,0.00,22.68,26.90,29.45,4.71,27.13,1003.86,2035.05,3392.96,3278.01,3553.58,350.32,343.93,2.20,0000 0000 0000 0000 000000
2015-03-24 02:23:52,0.08,0.16,0.00,22.69,26.90,29.53,4.75,27.14,1003.78,2035.06,3391.90,3277.24,3552.75,350.01,343.58,2.23,0000 0000 0000 0000 000000
2015-03-24 02:28:53,0.06,0.17,0.00,23.16,26.92,29.69,4.73,27.22,1003.78,2035.03,3390.99,3276.52,3551.95,350.08,343.30,2.26,0000 0000 0000 0000 000000
2015-03-24 02:33:55,0.07,0.17,0.00,23.93,26.94,29.79,4.66,27.07,1003.78,2035.00,3390.03,3275.77,3551.03,350.01,342.21,2.29,0000 0000 0000 0000 000000
2015-03-24 02:38:56,0.09,0.17,0.00,23.63,26.96,29.90,4.71,27.08,1003.58,2035.00,3388.87,3274.90,3550.06,349.91,342.63,2.31,0000 0000 0000 0000 000000
2015-03-24 02:43:58,0.09,0.17,0.00,23.31,26.97,29.95,4.76,27.12,1003.47,2035.00,3387.77,3274.07,3549.19,349.86,342.46,2.34,0000 0000 0000 0000 000000
2015-03-24 02:48:59,0.08,0.18,0.00,23.18,26.97,29.66,4.70,27.13,1003.44,2035.00,3386.79,3273.45,3548.43,350.04,343.02,2.37,0000 0000 0000 0000 000000
2015-03-24 02:54:00,0.03,0.18,0.00,23.46,26.97,29.35,4.77,27.18,1003.44,2035.00,3385.92,3272.96,3547.90,350.38,342.80,2.40,0000 0000 0000 0000 000000
2015-03-24 02:59:02,0.08,0.18,0.00,23.28,26.97,29.37,4.75,27.18,1003.44,2035.01,3385.07,3272.22,3547.09,350.28,343.09,2.43,0000 0000 0000 0000 000000
2015-03-24 03:04:03,0.07,0.18,0.00,22.92,26.95,29.40,4.77,27.36,1003.45,2035.01,3384.11,3271.70,3546.47,349.63,343.08,2.46,0000 0000 0000 0000 000000
2015-03-24 03:09:04,0.06,0.18,0.00,22.83,26.95,29.48,4.66,27.16,1003.46,2035.02,3383.08,3270.99,3545.68,349.93,343.31,2.49,0000 0000 0000 0000 000000
2015-03-24 03:14:05,0.07,0.19,0.00,22.83,26.95,29.57,4.71,27.20,1003.46,2035.00,3382.11,3270.14,3544.89,350.12,343.59,2.52,0000 0000 0000 0000 000000
2015-03-24 03:19:06,0.08,0.19,0.00,22.84,26.95,29.60,4.77,27.31,1003.44,2035.01,3381.17,3269.54,3544.04,349.90,343.27,2.55,0000 0000 0000 0000 000000
2015-03-24 03:24:08,0.07,0.19,0.00,23.26,26.96,29.68,4.81,27.07,1003.44,2035.01,3380.15,3268.82,3543.17,350.21,343.30,2.58,0000 0000 0000 0000 000000
2015-03-24 03:29:09,0.09,0.19,0.00,24.06,26.98,29.77,4.68,27.05,1003.43,2035.00,3379.04,3267.93,3542.22,349.92,341.89,2.61,0000 0000 0000 0000 000000
2015-03-24 03:34:11,0.09,0.20,0.00,23.76,27.00,29.93,4.72,27.02,1003.43,2035.00,3377.89,3267.07,3541.30,349.88,342.09,2.64,0000 0000 0000 0000 000000
2015-03-24 03:39:12,0.09,0.20,0.00,23.47,27.02,29.97,4.73,27.00,1003.43,2035.00,3376.75,3266.33,3540.49,350.39,343.06,2.67,0000 0000 0000 0000 000000
2015-03-24 03:44:13,0.07,0.20,0.00,23.37,27.02,29.85,4.73,27.13,1003.37,2035.00,3375.73,3265.61,3539.72,350.16,342.89,2.70,0000 0000 0000 0000 000000
2015-03-24 03:49:15,0.04,0.20,0.00,23.38,27.02,29.52,4.63,27.10,1003.04,2034.99,3374.77,3265.01,3539.01,349.60,342.06,2.72,0000 0000 0000 0000 000000
2015-03-24 03:54:16,0.08,0.21,0.00,23.60,27.02,29.38,4.73,27.06,1002.96,2034.99,3373.91,3264.30,3538.18,350.13,342.38,2.75,0000 0000 0000 0000 000000
2015-03-24 03:59:17,0.04,0.21,0.00,23.23,27.01,29.52,4.66,27.18,1002.95,2034.99,3373.00,3263.93,3537.67,350.12,342.77,2.78,0000 0000 0000 0000 000000
2015-03-24 04:04:19,0.09,0.21,0.00,23.07,27.00,29.60,4.76,27.35,1002.94,2034.99,3371.86,3263.10,3536.76,349.51,342.40,2.81,0000 0000 0000 0000 000000
2015-03-24 04:09:20,0.07,0.21,0.00,23.03,27.00,29.66,4.66,27.16,1002.95,2034.99,3370.85,3262.42,3535.96,349.79,342.91,2.84,0000 0000 0000 0000 000000
2015-03-24 04:14:21,0.08,0.21,0.00,23.14,27.01,29.67,4.74,27.18,1002.94,2034.99,3369.82,3261.72,3535.08,349.90,342.70,2.87,0000 0000 0000 0000 000000
2015-03-24 04:19:23,0.07,0.22,0.00,23.94,27.02,29.74,4.74,27.13,1002.94,2034.99,3368.78,3260.95,3534.17,350.14,342.19,2.90,0000 0000 0000 0000 000000
2015-03-24 04:24:24,0.08,0.22,0.00,24.04,27.04,29.87,4.66,27.16,1002.94,2034.99,3367.73,3260.08,3533.39,349.91,341.66,2.93,0000 0000 0000 0000 000000
2015-03-24 04:29:25,0.09,0.22,0.00,23.68,27.06,29.99,4.71,27.22,1002.93,2034.99,3366.62,3259.27,3532.40,349.79,342.15,2.96,0000 0000 0000 0000 000000
2015-03-24 04:34:27,0.08,0.22,0.00,23.57,27.07,29.98,4.68,27.13,1002.75,2034.96,3365.41,3258.52,3531.53,350.31,342.76,2.99,0000 0000 0000 0000 000000
2015-03-24 04:39:28,0.06,0.23,0.00,23.44,27.07,29.77,4.64,26.93,1002.57,2034.98,3364.48,3257.90,3530.77,350.15,342.69,3.02,0000 0000 0000 0000 000000
2015-03-24 04:44:29,0.07,0.23,0.00,23.38,27.06,29.53,4.69,27.05,1002.50,2034.98,3363.48,3257.11,3530.03,349.75,342.18,3.05,0000 0000 0000 0000 000000
2015-03-24 04:49:31,0.06,0.23,0.00,23.69,27.05,29.38,4.72,27.07,1002.48,2034.98,3362.66,3256.71,3529.30,350.48,342.43,3.08,0000 0000 0000 0000 000000
2015-03-24 04:54:32,0.05,0.23,0.00,23.38,27.03,29.40,4.71,27.17,1002.47,2034.99,3361.78,3256.02,3528.69,350.09,342.57,3.11,0000 0000 0000 0000 000000
2015-03-24 04:59:33,0.08,0.23,0.00,23.07,27.02,29.48,4.75,27.18,1002.46,2034.99,3360.73,3255.26,3527.88,350.11,343.02,3.13,0000 0000 0000 0000 000000
2015-03-24 05:04:34,0.09,0.24,0.00,23.00,27.01,29.50,4.72,27.29,1002.45,2034.98,3359.56,3254.47,3526.95,350.21,343.10,3.16,0000 0000 0000 0000 000000
2015-03-24 05:09:36,0.08,0.24,0.00,23.03,27.01,29.60,4.68,27.13,1002.39,2034.98,3358.53,3253.72,3526.05,349.43,342.00,3.19,0000 0000 0000 0000 000000
2015-03-24 05:14:37,0.07,0.24,0.00,23.90,27.02,29.71,4.65,27.18,1002.16,2034.98,3357.58,3252.95,3525.29,350.06,341.88,3.22,0000 0000 0000 0000 000000
2015-03-24 05:19:38,0.09,0.24,0.00,24.17,27.03,29.78,4.72,27.10,1001.99,2034.98,3356.48,3252.09,3524.39,349.86,341.19,3.25,0000 0000 0000 0000 000000
2015-03-24 05:24:40,0.08,0.25,0.00,23.78,27.05,29.95,4.76,27.11,1001.97,2034.95,3355.18,3251.19,3523.51,350.03,341.80,3.28,0000 0000 0000 0000 000000
2015-03-24 05:29:41,0.07,0.25,0.00,23.63,27.07,30.00,4.72,27.11,1001.82,2034.94,3354.05,3250.53,3522.62,350.51,342.37,3.31,0000 0000 0000 0000 000000
2015-03-24 05:34:42,0.05,0.25,0.00,23.51,27.07,29.91,4.73,27.00,1001.61,2034.95,3353.07,3249.98,3521.98,350.64,342.54,3.34,0000 0000 0000 0000 000000
2015-03-24 05:39:44,0.09,0.25,0.00,23.41,27.05,29.62,4.70,27.06,1001.50,2034.98,3352.11,3249.29,3521.29,349.77,341.83,3.37,0000 0000 0000 0000 000000
2015-03-24 05:44:45,0.06,0.26,0.00,23.71,27.04,29.31,4.68,26.96,1001.49,2034.99,3351.14,3248.75,3520.56,349.76,341.51,3.40,0000 0000 0000 0000 000000
2015-03-24 05:49:47,0.05,0.26,0.00,23.43,27.02,29.33,4.73,26.99,1001.48,2034.98,3350.26,3248.03,3519.99,350.37,342.48,3.43,0000 0000 0000 0000 000000
2015-03-24 05:54:48,0.08,0.26,0.00,23.11,27.01,29.44,4.73,27.04,1001.48,2034.99,3349.49,3247.55,3519.22,350.05,342.42,3.46,0000 0000 0000 0000 000000
2015-03-24 05:59:50,0.06,0.26,0.00,23.08,27.00,29.56,4.69,27.16,1001.45,2034.99,3348.53,3246.84,3518.70,349.81,342.37,3.49,0000 0000 0000 0000 000000
2015-03-24 06:04:51,0.08,0.26,0.00,23.15,27.00,29.59,4.72,27.17,1001.40,2034.99,3347.47,3246.02,3517.75,350.12,342.25,3.52,0000 0000 0000 0000 000000
2015-03-24 06:09:52,0.08,0.27,0.00,24.04,27.01,29.68,4.73,27.10,1001.40,2034.98,3346.41,3245.13,3516.95,350.55,341.77,3.54,0000 0000 0000 0000 000000
2015-03-24 06:14:54,0.08,0.27,0.00,24.19,27.03,29.77,4.66,27.08,1001.41,2034.99,3345.49,3244.49,3516.09,349.74,340.85,3.57,0000 0000 0000 0000 000000
2015-03-24 06:19:55,0.08,0.27,0.00,23.87,27.05,29.94,4.68,27.09,1001.33,2034.96,3344.33,3243.66,3515.16,349.98,341.44,3.60,0000 0000 0000 0000 000000
2015-03-24 06:24:56,0.06,0.27,0.00,23.71,27.06,29.99,4.72,27.02,1001.08,2034.96,3343.30,3242.99,3514.39,350.26,341.80,3.63,0000 0000 0000 0000 000000
2015-03-24 06:29:57,0.08,0.28,0.00,23.63,27.06,29.88,4.68,27.02,1001.00,2034.97,3342.25,3242.21,3513.79,350.57,342.44,3.66,0000 0000 0000 0000 000000
2015-03-24 06:34:58,0.05,0.28,0.00,23.51,27.05,29.70,4.75,27.01,1000.99,2034.97,3341.40,3241.81,3513.05,350.34,342.14,3.69,0000 0000 0000 0000 000000
2015-03-24 06:40:00,0.07,0.28,0.00,23.46,27.04,29.50,4.65,26.95,1000.96,2034.99,3340.55,3241.06,3512.47,350.16,342.03,3.72,0000 0000 0000 0000 000000
2015-03-24 06:45:01,0.02,0.28,0.00,23.72,27.01,29.29,4.66,27.06,1000.78,2034.99,3339.84,3240.84,3511.99,349.58,341.11,3.75,0000 0000 0000 0000 000000
2015-03-24 06:50:02,0.07,0.28,0.00,23.40,27.00,29.40,4.71,27.06,1000.53,2034.99,3339.02,3240.08,3511.35,350.36,342.18,3.78,0000 0000 0000 0000 000000
2015-03-24 06:55:03,0.06,0.29,0.00,23.22,26.98,29.49,4.72,27.12,1000.51,2034.99,3338.15,3239.68,3510.76,350.41,342.32,3.81,0000 0000 0000 0000 000000
2015-03-24 07:00:05,0.06,0.29,0.00,23.12,26.97,29.50,4.67,26.95,1000.50,2034.99,3337.28,3238.98,3509.99,349.59,341.64,3.84,0000 0000 0000 0000 000000
2015-03-24 07:05:06,0.09,0.29,0.00,23.28,26.97,29.57,4.73,27.08,1000.50,2034.99,3336.21,3238.14,3509.13,350.42,342.19,3.87,0000 0000 0000 0000 000000
2015-03-24 07:10:07,0.08,0.29,0.00,24.25,26.99,29.56,4.67,26.92,1000.45,2034.99,3335.25,3237.46,3508.38,349.69,340.43,3.90,0000 0000 0000 0000 000000
2015-03-24 07:15:08,0.05,0.29,0.00,24.17,27.00,29.69,4.65,26.90,1000.23,2034.99,3334.41,3236.89,3507.71,350.16,340.93,3.93,0000 0000 0000 0000 000000
2015-03-24 07:20:10,0.07,0.30,0.00,23.82,27.02,29.92,4.72,27.02,1000.12,2034.99,3333.41,3236.09,3507.01,350.21,341.31,3.95,0000 0000 0000 0000 000000
2015-03-24 07:25:11,0.08,0.30,0.00,23.75,27.03,29.97,4.70,26.97,1000.04,2034.99,3332.38,3235.51,3506.20,350.34,341.55,3.98,0000 0000 0000 0000 000000
2015-03-24 07:30:12,0.04,0.30,0.00,23.65,27.03,29.88,4.65,26.98,1000.02,2034.99,3331.53,3235.00,3505.75,349.75,341.09,4.01,0000 0000 0000 0000 000000
2015-03-24 07:35:14,0.06,0.30,0.00,23.53,27.02,29.69,4.72,26.99,1000.01,2034.99,3330.71,3234.43,3505.04,350.38,341.71,4.04,0000 0000 0000 0000 000000
2015-03-24 07:40:15,0.02,0.30,0.00,23.46,27.01,29.45,4.74,26.98,1000.00,2034.99,3329.98,3234.00,3504.78,350.32,341.64,4.07,0000 0000 0000 0000 000000
2015-03-24 07:45:16,0.07,0.31,0.00,23.45,26.99,29.34,4.66,26.97,999.81,2035.00,3329.13,3233.47,3504.04,350.26,341.61,4.10,0000 0000 0000 0000 000000
2015-03-24 07:50:18,0.04,0.31,0.00,23.72,26.96,29.24,4.59,26.93,999.53,2035.02,3328.35,3233.01,3503.61,349.45,340.39,4.13,0000 0000 0000 0000 000000
2015-03-24 07:55:19,0.06,0.31,0.00,23.53,26.95,29.38,4.71,27.04,999.53,2035.04,3327.74,3232.47,3503.01,349.95,341.10,4.16,0000 0000 0000 0000 000000
2015-03-24 08:00:20,0.05,0.31,0.00,23.25,26.93,29.39,4.78,27.02,999.53,2035.10,3327.02,3232.00,3502.39,350.02,341.57,4.19,0000 0000 0000 0000 000000
2015-03-24 08:05:21,0.07,0.31,0.00,23.10,26.92,29.45,4.71,27.10,999.52,2035.13,3326.25,3231.39,3501.77,350.18,341.89,4.22,0000 0000 0000 0000 000000
2015-03-24 08:10:23,0.06,0.31,0.00,23.21,26.92,29.50,4.77,27.06,999.50,2035.10,3325.30,3230.81,3501.03,350.28,341.70,4.25,0000 0000 0000 0000 000000
2015-03-24 08:15:24,0.06,0.32,0.00,24.09,26.94,29.51,4.69,26.96,999.19,2035.05,3324.49,3230.04,3500.41,350.14,340.71,4.28,0000 0000 0000 0000 000000
2015-03-24 08:20:25,0.07,0.32,0.00,24.26,26.96,29.52,4.66,26.99,999.06,2035.04,3323.70,3229.48,3499.82,350.04,340.32,4.31,0000 0000 0000 0000 000000
2015-03-24 08:25:27,0.04,0.32,0.00,23.93,26.98,29.86,4.70,26.98,999.06,2035.02,3322.81,3228.95,3499.05,349.89,340.59,4.34,0000 0000 0000 0000 000000
2015-03-24 08:30:28,0.08,0.32,0.00,23.76,27.00,30.01,4.72,26.93,999.04,2035.02,3321.99,3228.15,3498.38,350.23,341.08,4.37,0000 0000 0000 0000 000000
2015-03-24 08:35:29,0.03,0.32,0.00,23.70,27.00,29.92,4.73,26.83,999.03,2035.02,3321.10,3227.95,3497.98,350.38,341.25,4.39,0000 0000 0000 0000 000000
2015-03-24 08:40:30,0.09,0.33,0.00,23.59,27.00,29.81,4.73,26.98,998.91,2035.06,3320.39,3227.21,3497.31,350.27,341.30,4.42,0000 0000 0000 0000 000000
2015-03-24 08:45:31,0.03,0.33,0.00,23.50,26.99,29.59,4.73,27.03,998.74,2035.16,3319.89,3227.00,3496.99,350.13,341.23,4.45,0000 0000 0000 0000 000000
2015-03-24 08:50:33,0.11,0.33,0.00,23.43,26.97,29.44,4.73,27.05,998.58,2035.37,3319.07,3226.56,3496.51,350.48,341.47,4.48,0000 0000 0000 0000 000000
2015-03-24 08:55:34,0.09,0.33,0.00,23.66,26.95,29.22,4.64,26.81,998.55,2035.72,3318.43,3226.02,3496.01,349.79,340.55,4.51,0000 0000 0000 0000 000000
2015-03-24 09:00:35,0.02,0.33,0.00,23.59,26.92,29.31,4.66,26.99,998.54,2035.93,3318.00,3225.98,3495.87,350.37,341.14,4.54,0000 0000 0000 0000 000000
2015-03-24 09:05:36,0.08,0.34,0.00,23.17,26.91,29.36,4.73,26.99,998.35,2035.92,3317.28,3225.26,3495.07,350.29,341.41,4.57,0000 0000 0000 0000 000000
2015-03-24 09:10:38,0.02,0.34,0.00,23.11,26.90,29.47,4.69,26.99,998.10,2035.90,3316.96,3225.00,3494.56,349.71,340.95,4.60,0000 0000 0000 0000 000000
2015-03-24 09:15:39,0.07,0.34,0.00,23.21,26.90,29.52,4.59,26.92,998.08,2035.92,3316.16,3224.44,3494.01,349.55,340.77,4.63,0000 0000 0000 0000 000000
2015-03-24 09:20:40,0.00,0.34,0.00,23.88,26.91,29.52,4.78,26.97,998.07,2035.74,3315.66,3223.95,3493.41,349.94,340.22,4.66,0000 0000 0000 0000 000000
2015-03-24 09:25:42,0.03,0.34,0.00,24.27,26.93,29.49,4.65,26.99,998.07,2035.44,3314.94,3223.17,3492.83,349.82,339.59,4.69,0000 0000 0000 0000 000000
2015-03-24 09:30:43,0.02,0.34,0.00,24.01,26.96,29.78,4.70,26.99,998.07,2035.26,3314.10,3222.86,3492.04,349.62,339.79,4.72,0000 0000 0000 0000 000000
2015-03-24 09:35:44,0.05,0.34,0.00,23.79,26.97,29.97,4.70,27.00,998.06,2035.06,3313.28,3222.08,3491.51,350.19,340.74,4.75,0000 0000 0000 0000 000000
2015-03-24 09:40:46,0.01,0.34,0.00,23.68,26.99,29.92,4.67,26.98,998.05,2035.05,3312.84,3221.96,3491.01,350.05,340.75,4.78,0000 0000 0000 0000 000000
2015-03-24 09:45:47,0.07,0.34,0.00,23.58,26.98,29.85,4.70,26.90,998.02,2035.04,3312.06,3221.27,3490.56,350.12,340.59,4.80,0000 0000 0000 0000 000000
2015-03-24 09:50:48,0.03,0.35,0.00,23.50,26.97,29.62,4.72,26.93,997.94,2035.08,3311.79,3221.01,3490.02,349.95,340.67,4.83,0000 0000 0000 0000 000000
2015-03-24 09:55:50,0.06,0.35,0.00,23.44,26.95,29.46,4.77,27.00,997.66,2035.30,3311.06,3220.97,3489.98,350.11,340.94,4.86,0000 0000 0000 0000 000000
2015-03-24 10:00:51,0.05,0.35,0.00,23.39,26.93,29.33,4.67,26.93,997.59,2035.51,3310.83,3220.73,3489.61,350.05,340.85,4.89,0000 0000 0000 0000 000000
2015-03-24 10:05:52,0.11,0.35,0.00,23.67,26.91,29.17,4.69,26.99,997.57,2035.85,3310.06,3220.07,3489.03,350.20,340.66,4.92,0000 0000 0000 0000 000000
2015-03-24 10:10:54,0.01,0.35,0.00,23.47,26.88,29.33,4.70,27.02,997.57,2035.95,3309.98,3220.00,3489.00,350.00,340.29,4.95,0000 0000 0000 0000 000000
2015-03-24 10:15:55,0.06,0.36,0.00,23.12,26.87,29.39,4.72,26.94,997.57,2035.95,3309.20,3219.77,3488.31,350.24,341.02,4.98,0000 0000 0000 0000 000000
2015-03-24 10:20:57,0.03,0.36,0.00,23.00,26.87,29.42,4.63,26.88,997.54,2035.98,3308.91,3219.09,3488.00,349.78,340.92,5.01,0000 0000 0000 0000 000000
2015-03-24 10:25:58,0.03,0.36,0.00,23.15,26.87,29.50,4.75,26.88,997.29,2035.95,3308.12,3218.97,3487.47,350.20,341.20,5.04,0000 0000 0000 0000 000000
2015-03-24 10:30:59,0.05,0.36,0.00,24.05,26.87,29.44,4.71,26.88,997.11,2035.86,3307.63,3218.21,3486.93,350.00,339.85,5.07,0000 0000 0000 0000 000000
2015-03-24 10:36:01,-0.01,0.36,0.00,24.30,26.90,29.45,4.65,26.81,997.12,2035.54,3306.98,3217.86,3486.13,349.73,339.37,5.10,0000 0000 0000 0000 000000
2015-03-24 10:41:02,0.03,0.36,0.00,23.96,26.92,29.79,4.65,26.86,997.10,2035.27,3306.17,3217.10,3485.76,350.14,340.00,5.13,0000 0000 0000 0000 000000
2015-03-24 10:46:03,0.03,0.36,0.00,23.75,26.94,29.97,4.67,26.97,997.09,2035.25,3305.73,3216.98,3485.04,349.91,340.15,5.16,0000 0000 0000 0000 000000
2015-03-24 10:51:04,0.03,0.36,0.00,23.67,26.95,29.92,4.71,26.88,997.09,2035.10,3305.00,3216.29,3484.86,349.80,340.04,5.19,0000 0000 0000 0000 000000
2015-03-24 10:56:06,0.06,0.36,0.00,23.54,26.95,29.82,4.71,26.91,997.07,2035.18,3304.21,3216.01,3484.15,350.31,340.64,5.21,0000 0000 0000 0000 000000
2015-03-24 11:01:07,0.03,0.36,0.00,23.44,26.93,29.61,4.66,26.99,996.96,2035.30,3303.88,3215.92,3483.99,349.81,339.93,5.24,0000 0000 0000 0000 000000
2015-03-24 11:06:09,0.09,0.37,0.00,23.59,26.91,29.33,4.70,26.98,996.65,2035.30,3303.06,3215.14,3483.64,350.20,340.31,5.27,0000 0000 0000 0000 000000
2015-03-24 11:11:10,0.07,0.37,0.00,23.59,26.90,29.35,4.59,26.87,996.60,2035.66,3302.99,3215.01,3483.14,349.95,340.12,5.30,0000 0000 0000 0000 000000
2015-03-24 11:16:11,0.03,0.37,0.00,23.24,26.88,29.44,4.70,26.96,996.60,2035.83,3302.39,3214.98,3483.00,349.65,340.25,5.33,0000 0000 0000 0000 000000
2015-03-24 11:21:12,0.06,0.37,0.00,23.15,26.87,29.49,4.65,26.82,996.60,2035.85,3301.93,3214.39,3482.53,349.83,340.65,5.36,0000 0000 0000 0000 000000
2015-03-24 11:26:14,0.02,0.37,0.00,23.07,26.87,29.51,4.70,26.90,996.53,2035.73,3301.13,3214.00,3482.00,349.96,340.70,5.39,0000 0000 0000 0000 000000
2015-03-24 11:31:15,0.05,0.37,0.00,23.85,26.88,29.55,4.71,26.91,996.25,2035.66,3300.67,3213.46,3481.34,349.88,339.71,5.42,0000 0000 0000 0000 000000
2015-03-24 11:36:16,-0.02,0.37,0.00,24.23,26.90,29.55,4.71,26.94,996.12,2035.35,3300.01,3212.99,3480.97,350.16,339.44,5.45,0000 0000 0000 0000 000000
2015-03-24 11:41:17,0.07,0.38,0.00,23.90,26.92,29.83,4.66,26.89,996.11,2035.27,3299.21,3212.47,3480.23,349.98,339.79,5.48,0000 0000 0000 0000 000000
2015-03-24 11:46:19,0.02,0.38,0.00,23.69,26.93,29.95,4.58,26.80,996.11,2035.10,3298.48,3212.01,3479.94,350.43,340.18,5.51,0000 0000 0000 0000 000000
2015-03-24 11:51:20,0.07,0.38,0.00,23.60,26.95,29.88,4.62,26.89,996.11,2035.16,3297.88,3211.66,3479.26,349.86,339.84,5.54,0000 0000 0000 0000 000000
2015-03-24 11:56:21,0.05,0.38,0.00,23.48,26.93,29.77,4.67,26.82,995.96,2035.19,3297.10,3211.04,3479.00,349.69,339.93,5.57,0000 0000 0000 0000 000000
2015-03-24 12:01:22,0.06,0.38,0.00,23.47,26.92,29.52,4.57,26.94,995.63,2035.47,3296.88,3210.98,3478.73,349.65,339.57,5.60,0000 0000 0000 0000 000000
2015-03-24 12:06:24,0.05,0.38,0.00,23.65,26.90,29.31,4.62,26.94,995.60,2035.47,3296.13,3210.63,3478.04,350.21,339.96,5.62,0000 0000 0000 0000 000000
2015-03-24 12:11:25,0.06,0.38,0.00,23.27,26.90,29.43,4.68,26.96,995.49,2035.61,3295.99,3210.06,3477.97,349.79,340.21,5.65,0000 0000 0000 0000 000000
2015-03-24 12:16:26,0.03,0.39,0.00,23.11,26.88,29.52,4.61,26.92,995.16,2035.71,3295.47,3209.98,3477.31,349.99,340.11,5.68,0000 0000 0000 0000 000000
2015-03-24 12:21:28,0.05,0.39,0.00,23.05,26.87,29.50,4.73,27.01,995.13,2035.72,3294.98,3209.55,3476.99,349.73,340.15,5.71,0000 0000 0000 0000 000000
2015-03-24 12:26:29,0.01,0.39,0.00,23.38,26.88,29.56,4.66,26.88,995.11,2035.47,3294.15,3209.02,3476.27,350.26,340.09,5.74,0000 0000 0000 0000 000000
2015-03-24 12:31:30,0.02,0.39,0.00,24.16,26.90,29.55,4.70,26.93,995.04,2035.23,3293.64,3208.58,3475.90,350.61,339.36,5.77,0000 0000 0000 0000 000000
2015-03-24 12:36:32,0.03,0.39,0.00,23.99,26.92,29.71,4.64,26.90,994.75,2035.07,3292.83,3208.01,3475.09,349.93,338.90,5.80,0000 0000 0000 0000 000000
2015-03-24 12:41:33,0.05,0.39,0.00,23.69,26.93,29.94,4.64,26.94,994.67,2035.04,3292.03,3207.48,3474.70,350.15,339.27,5.83,0000 0000 0000 0000 000000
2015-03-24 12:46:34,0.04,0.39,0.00,23.59,26.95,29.94,4.66,26.93,994.64,2035.02,3291.29,3207.01,3474.03,350.01,339.54,5.86,0000 0000 0000 0000 000000
2015-03-24 12:51:35,0.01,0.39,0.00,23.48,26.95,29.82,4.65,26.98,994.64,2035.02,3290.91,3206.92,3473.95,349.73,339.33,5.89,0000 0000 0000 0000 000000
2015-03-24 12:56:37,0.10,0.40,0.00,23.39,26.93,29.63,4.67,26.90,994.63,2035.15,3290.12,3206.36,3473.59,350.23,339.75,5.92,0000 0000 0000 0000 000000
2015-03-24 13:01:38,0.11,0.40,0.00,23.63,26.92,29.38,4.63,26.91,994.29,2035.66,3289.84,3206.02,3473.08,349.85,339.23,5.95,0000 0000 0000 0000 000000
2015-03-24 13:06:40,0.03,0.40,0.00,23.36,26.90,29.43,4.76,26.99,994.17,2035.81,3289.20,3205.99,3472.99,350.60,340.18,5.98,0000 0000 0000 0000 000000